Regional Weather Roundup
Issued by NWS

Home | Current Version | Previous Version | Text Only | Print | Product List | Glossary Off
Versions: 1 2 3 4 5 6 7 8 9 10 11 12 13 14 15 16 17 18 19 20 21 22 23 24 25 26 27 28 29 30 31 32 33 34 35 36 37 38 39 40 41 42 43 44 45 46 47 48 49 50

000
ASUS43 KLMK 272002
RWRKY
KENTUCKY REGIONAL WEATHER ROUNDUP
NATIONAL WEATHER SERVICE LOUISVILLE KY
400 PM EDT WED MAY 27 2015

NOTE "FAIR" INDICATES FEW OR NO CLOUDS BELOW 12,000 FEET
WITH NO SIGNIFICANT WEATHER AND/OR OBSTRUCTIONS TO VISIBILITY.

KYZ001>023-026-027-061>063-070>075-272100-
WESTERN AND SOUTH CENTRAL KENTUCKY

CITY           SKY/WX    TMP DP  RH WIND       PRES   REMARKS
PADUCAH        CLOUDY    74  64  71 SW10      30.11F
HENDERSON      CLOUDY    79  64  61 SW20      30.09R
OWENSBORO      CLOUDY    77  68  73 S13       30.09F
HOPKINSVILLE   CLOUDY    71  66  83 S12       30.12F
BOWLING GREEN  LGT RAIN  72  62  71 W18G28    30.19R
GLASGOW        NOT AVBL
$$

KYZ024-025-028>034-038-045-046-053-272100-
NORTH CENTRAL KENTUCKY

CITY           SKY/WX    TMP DP  RH WIND       PRES   REMARKS
LOUISVILLE/SDF CLOUDY    72  64  76 S13       30.10F
LOUISVILLE/LOU CLOUDY    71  64  78 S8        30.11F
FORT KNOX      CLOUDY    69  64  85 SE8       30.11S
$$

KYZ035>037-039>044-047>052-055>060-089>105-272100-
NORTHEAST KENTUCKY

CITY           SKY/WX    TMP DP  RH WIND       PRES   REMARKS
LEXINGTON      PTSUNNY   80  64  58 SW13G18   30.14S
COVINGTON      PTSUNNY   79  64  60 S13       30.09F
FRANKFORT      TSTM      67  60  78 S10       30.15R
$$

KYZ054-064>069-076>088-106>120-272100-
SOUTHEAST KENTUCKY

CITY           SKY/WX    TMP DP  RH WIND       PRES   REMARKS
JACKSON        MOSUNNY   81  64  56 CALM      30.19F
LONDON         MOSUNNY   81  58  45 W7        30.18S
SOMERSET       NOT AVBL
MIDDLESBORO    NOT AVBL
MONTICELLO     PTCLDY    82  65  56 S10       30.19F
$$



USA.gov is the U.S. government's official web portal to all federal, state and local government web resources and services.